{"data":{"norad_id":53076,"epoch":"2026-05-25T02:03:08.015616Z","epoch_age_seconds":61674,"freshness":"FRESH","line1":"1 53076U 22077AK  26145.08550944 -.00001910  00000+0 -12835-3 0  9996","line2":"2 53076  97.4473 324.9955 0001569  63.7386 296.4003 15.05657258212405","mean_motion":15.05657258,"eccentricity":0.0001569,"inclination_deg":97.4473,"raan_deg":324.9955,"arg_perigee_deg":63.7386,"mean_anomaly_deg":296.4003,"bstar":-0.00012835,"rev_number":21240,"period_min":95.639295885492,"perigee_km":548.40194643083,"apogee_km":550.5758354354,"semimajor_km":6927.6258909331,"source":"CELESTRAK","updated_at":"2026-05-25T13:38:17.312838Z"}}